Regional Weather Roundup
Issued by NWS

Home | Current Version | Previous Version | Text Only | Print | Product List | Glossary On
Versions: 1 2 3 4 5 6 7 8 9 10 11 12 13 14 15 16 17 18 19 20 21 22 23 24 25 26 27 28 29 30 31 32 33 34 35 36 37 38 39 40 41 42 43 44 45 46 47 48 49 50
000
ASUS43 KTOP 210159
RWRKS

WEATHER ROUNDUP FOR KANSAS
NATIONAL WEATHER SERVICE GOODLAND KS
800 PM CST THU NOV 20 2014

NOTE:  "FAIR" INDICATES FEW OR NO CLOUDS BELOW 12,000 FEET WITH NO
SIGNIFICANT WEATHER AND/OR OBSTRUCTIONS TO VISIBILITY.

KSZ001>006-013>018-027>032-041>047-210300-
NORTHWEST KANSAS

CITY           SKY/WX    TMP DP  RH WIND       PRES   REMARKS
GOODLAND       PTCLDY    28  15  58 SE9       30.03S
HAYS           CLEAR     30  18  59 E9        30.10R
HILL CITY      CLEAR     30  20  66 E6        30.09R
RUSSELL        CLEAR     34  21  59 E13       30.10R WCI  25
$$

KSZ061>065-074>080-084>089-210300-
SOUTHWEST KANSAS

CITY           SKY/WX    TMP DP  RH WIND       PRES   REMARKS
DODGE CITY     CLEAR     34  25  69 SE6       30.08R
ELKHART          N/A     35  23  61 SE7         N/A
GARDEN CITY    CLEAR     34  26  72 SE9       30.05R
GREAT BEND     PTCLDY    34  21  60 E8        30.12R
LIBERAL        CLEAR     39  27  60 E8        30.07R
$$

KSZ066>073-081>083-090>101-210300-
SOUTHEAST KANSAS

CITY           SKY/WX    TMP DP  RH WIND       PRES   REMARKS
CHANUTE        CLEAR     36  24  62 E9        30.18R
COFFEYVILLE    PTCLDY    36  26  67 NE10      30.16R WCI  28
HUTCHINSON     PTCLDY    37  23  56 E9        30.14R
MEDICINE LODGE   N/A     39  27  62 E7        30.11R
NEWTON         PTCLDY    32  19  59 E7        30.16R
PARSONS        PTCLDY    38  25  59 NE7       30.17R
WICHITA INTL   MOCLDY    41  24  51 E12       30.13R
WICHITA JABRA  PTCLDY    37  24  59 E9        30.14R
WINFIELD       PTCLDY    41  25  53 E10       30.13R
$$

KSZ007>012-019>026-033>040-048>060-102>105-210300-
NORTHEAST KANSAS

CITY           SKY/WX    TMP DP  RH WIND       PRES   REMARKS
CONCORDIA      PTCLDY    29  19  66 E6        30.16R
EMPORIA        CLEAR     29  19  66 E8        30.18R
LAWRENCE       CLEAR     30  18  60 NE9       30.23R
MANHATTAN      CLEAR     30  19  63 E3        30.19S
OLATHE IND     CLEAR     31  19  61 E5        30.22S
OLATHE EXE     CLEAR     31  18  58 E6        30.21S
SALINA         CLEAR     36  19  50 E8        30.17R
TOPEKA BILLARD CLEAR     28  17  63 E3        30.22R
TOPEKA FORBES  CLEAR     32  18  56 E6        30.20S
$$



USA.gov is the U.S. government's official web portal to all federal, state and local government web resources and services.